Weather observations for the past three days for
Beaver County Airport
Imperial (Metric)
Date Time (edt) Wind (mph) Vis. (mi.) Weather Sky Cond. Temperature (ºF) Relative Humidity Wind Chill (°F) Heat Index (°F) Pressure Precipitation (in)
Air Dwpt 6 hour altimeter (in) sea level (mb) 1 hr 3 hr 6 hr
Max. Min.
24 11:55 SW 8 10.00 Partly Cloudy SCT025 81.7 65.7 58% 84 30.14 0.0
24 11:47 W 9 10.00 Fair CLR 82.4 66.2 58% 85 30.14 0.0
24 11:15 W 6 10.00 Partly Cloudy SCT019 79.9 66.2 63% 82 30.15 0.0
24 10:55 SW 9 10.00 Partly Cloudy SCT019 79.3 66 64% 81 30.15 0.0
24 10:47 W 6 10.00 Partly Cloudy SCT080 78.8 66.2 65% 81 30.15 0.0
24 10:35 W 8 10.00 Partly Cloudy SCT080 77.9 65.8 67% 80 30.15 0.0
24 10:15 W 6 10.00 Partly Cloudy SCT080 77.7 66.2 68% 80 30.15 0.0
24 09:55 W 6 10.00 Fair CLR 75.6 66 72% 77 30.14 0.0
24 09:47 W 7 10.00 Fair CLR 75.2 66.2 74% 77 30.14 0.0
24 09:35 W 6 10.00 Fair CLR 75 66.4 75% 76 30.14 0.0
24 09:15 SW 5 10.00 Partly Cloudy SCT005 73.6 66.4 78% 30.14 0.0
24 08:55 W 5 10.00 Partly Cloudy SCT005 71.4 65.8 83% 30.13 0.0
24 08:47 W 5 10.00 Fair CLR 69.8 66.2 88% 30.13 0.0
24 08:35 SW 6 10.00 Fair CLR 69.8 65.5 86% 30.13 0.0
24 08:15 SW 6 10.00 Fair CLR 69.3 65.3 87% 30.13 0.0
24 07:55 SW 6 10.00 Fair CLR 69.8 65.7 87% 30.13 0.0
24 07:47 SW 5 7.00 Partly Cloudy SCT004 69.8 66.2 88% 30.13 0.0
24 07:35 SW 5 7.00 Partly Cloudy SCT004 68.4 65.5 91% 30.12 0.0
24 07:15 SW 6 5.00 Fog/Mist CLR 67.8 65.3 92% 30.12 0.0
24 06:55 SW 3 4.00 Fog/Mist CLR 67.3 64.8 92% 30.12 0.0
24 06:47 SW 3 4.00 Fog/Mist CLR 66.2 64.4 94% 30.12 0.0
24 06:35 SW 5 4.00 Fog/Mist CLR 66.9 64.2 91% 30.12 0.0
24 06:15 SW 3 5.00 Fog/Mist CLR 66.7 63.9 91% 30.11 0.0
24 05:55 Calm 7.00 Fair CLR 66.7 63.9 91% 30.11 0.0
24 05:35 Calm 7.00 Fair CLR 66.7 63.9 91% 30.11 0.0
24 05:15 Calm 5.00 Fog/Mist CLR 66.7 63.7 90% 30.11 0.0
24 04:55 Calm 10.00 Fair CLR 67.3 64.4 91% 30.1 0.0
24 04:35 Calm 5.00 Fog/Mist CLR 66.9 63.9 90% 30.1 0.0
24 04:15 Calm 10.00 Fair CLR 67.3 64.2 90% 30.09 0.0
24 03:55 Calm 10.00 Fair CLR 67.3 63.5 88% 30.09 0.0
24 03:35 Calm 10.00 Fair CLR 68 63.5 86% 30.09 0.0
24 03:15 Calm 10.00 Fair CLR 68.9 64 85% 30.09 0.0
24 02:55 Calm 10.00 Partly Cloudy SCT060 69.1 64.4 85% 30.09 0.0
24 02:35 Calm 10.00 Partly Cloudy SCT060 69.4 64.4 84% 30.1 0.0
24 02:15 SW 3 10.00 Fair CLR 69.8 64.6 84% 30.1 0.0
24 01:55 W 5 10.00 Fair CLR 70.2 64.6 83% 30.1 0.0
24 01:35 Calm 10.00 Fair CLR 70.9 65.1 82% 30.1 0.0
24 01:15 Calm 10.00 Partly Cloudy SCT110 71.1 65.1 82% 30.1 0.0
24 00:55 W 5 10.00 Mostly Cloudy BKN110 72 65.3 80% 30.1 0.0
24 00:35 Calm 10.00 Partly Cloudy SCT120 72.1 65.3 79% 30.1 0.0
24 00:15 Calm 10.00 Fair CLR 72.9 65.3 77% 30.1 0.0
23 23:55 Calm 10.00 Fair CLR 73.4 65.3 76% 30.1 0.0
23 23:35 Calm 10.00 Fair CLR 73.4 65.3 76% 30.1 0.0
23 23:15 Calm 10.00 Fair CLR 74.3 64.9 73% 30.1 0.0
23 22:55 Calm 10.00 Fair CLR 75.2 64.8 70% 77 30.1 0.0
23 22:35 Calm 10.00 Partly Cloudy SCT038 74.7 64.4 71% 30.11 0.0
23 22:15 Calm 10.00 Partly Cloudy SCT038 75.4 64.4 69% 77 30.1 0.0
23 21:55 Calm 10.00 Fair CLR 75.7 64.4 68% 78 30.11 0.0
23 21:35 Calm 10.00 Fair CLR 75.9 65.3 70% 78 30.1 0.0
23 21:15 Calm 10.00 Partly Cloudy SCT120 76.6 64.8 67% 78 30.08 0.0
23 20:55 Calm 10.00 Partly Cloudy SCT080 SCT120 76.8 65.1 67% 79 30.08 0.0
23 20:35 Calm 10.00 Mostly Cloudy SCT048 SCT080 BKN110 78.6 64.8 63% 80 30.08 0.0
23 20:15 Calm 10.00 Light Rain SCT042 BKN048 OVC095 79.2 63.9 60% 81 30.08 0.0
23 19:55 Calm 10.00 Light Rain BKN045 OVC100 79.7 63.5 58% 81 30.08 0.0
23 19:35 S 6 10.00 Mostly Cloudy SCT047 BKN110 80.6 63.7 56% 82 30.07 0.0
23 19:15 S 5 10.00 Partly Cloudy SCT047 SCT120 81.5 64.2 56% 83 30.07 0.0
23 18:55 Calm 10.00 Partly Cloudy SCT047 81.9 63.7 54% 83 30.08 0.0
23 18:47 Calm 10.00 Fair CLR 82.4 64.4 55% 84 30.07 0.0
23 18:35 S 5 10.00 Fair CLR 83.7 63 50% 85 30.07 0.0
23 18:15 Calm 10.00 Partly Cloudy SCT110 81.9 62.4 52% 83 30.06 0.0
23 17:55 S 5 10.00 Mostly Cloudy BKN110 81.9 62.4 52% 83 30.07 0.0
23 17:47 Calm 10.00 Mostly Cloudy BKN110 82.4 62.6 51% 83 30.07 0.0
23 17:35 Calm 10.00 Partly Cloudy SCT120 82.4 62.8 52% 83 30.06 0.0
23 17:15 S 5 10.00 Partly Cloudy SCT120 81.9 62.4 52% 83 30.06 0.0
23 16:55 S 5 10.00 Fair CLR 81.7 62.1 51% 83 30.06 0.0
23 16:47 S 3 10.00 Partly Cloudy SCT110 82.4 62.6 51% 83 30.07 0.0
23 16:35 Calm 10.00 Partly Cloudy SCT110 82.2 61.9 50% 83 30.08 0.0
23 16:15 S 6 10.00 Partly Cloudy SCT039 SCT045 SCT070 84 61.3 46% 84 30.08 0.0
23 15:55 S 6 10.00 Partly Cloudy SCT070 85.3 61.9 45% 86 30.08 0.0
23 15:47 S 8 10.00 Fair CLR 84.2 62.6 48% 85 30.08 0.0
23 15:35 S 8 10.00 Fair CLR 84.6 62.2 47% 85 30.08 0.0
23 15:15 S 8 10.00 Partly Cloudy SCT110 83.7 62.4 49% 84 30.08 0.0
23 14:55 S 8 10.00 Mostly Cloudy SCT041 SCT049 BKN110 83.7 61.9 48% 84 30.09 0.0
23 14:47 SW 7 10.00 Mostly Cloudy SCT039 BKN047 BKN065 84.2 62.6 48% 85 30.1 0.0
23 14:35 SW 6 10.00 Overcast BKN039 BKN047 OVC065 83.8 61.9 48% 84 30.1 0.0
23 14:15 S 7 10.00 Mostly Cloudy BKN037 BKN050 83.7 60.3 45% 84 30.1 0.0
23 13:55 S 5 10.00 Partly Cloudy SCT038 SCT048 SCT050 83.1 62.1 49% 84 30.1 0.0
23 13:47 W 5 10.00 Partly Cloudy SCT038 SCT044 SCT055 82.4 60.8 48% 83 30.11 0.0
23 13:35 Calm 10.00 Partly Cloudy BKN039 SCT046 82.9 60.1 46% 83 30.11 0.0
23 13:15 SW 3 10.00 Partly Cloudy SCT030 SCT036 SCT041 82.6 61 48% 83 30.11 0.0
23 12:55 SW 7 10.00 Mostly Cloudy SCT030 BKN036 81.1 61.9 52% 82 30.12 0.0
23 12:47 SW 7 10.00 Mostly Cloudy BKN030 BKN038 80.6 62.6 54% 82 30.12 0.0
23 12:35 SW 3 10.00 Overcast BKN030 OVC038 80.4 63 55% 82 30.12 0.0
23 12:15 W 6 10.00 Mostly Cloudy SCT027 BKN036 81.9 62.1 51% 83 30.12 0.0
23 11:55 Calm 10.00 Mostly Cloudy BKN025 BKN032 78.3 63 59% 80 30.12 0.0
23 11:47 NW 3 10.00 Overcast OVC025 77 62.6 61% 79 30.12 0.0
23 11:35 NW 5 10.00 Overcast BKN023 OVC031 79.9 63.9 58% 81 30.12 0.0
23 11:15 W 5 10.00 Overcast BKN023 OVC032 78.4 63.9 61% 80 30.12 0.0
23 10:55 W 5 10.00 Mostly Cloudy BKN019 BKN026 BKN031 76.3 63.9 66% 78 30.12 0.0
23 10:47 W 5 10.00 Mostly Cloudy BKN017 BKN024 77 64.4 65% 79 30.12 0.0
23 10:35 SW 5 10.00 Overcast OVC017 77 65.3 67% 79 30.12 0.0
23 10:15 SW 3 10.00 Partly Cloudy SCT017 75.4 64.9 70% 77 30.12 0.0
23 09:55 W 3 10.00 Partly Cloudy SCT012 74.3 64.8 72% 30.11 0.0
23 09:47 Calm 10.00 Partly Cloudy SCT012 73.4 64.4 74% 30.11 0.0
23 09:35 W 3 10.00 Partly Cloudy SCT012 74.5 65.7 74% 30.11 0.0
23 09:15 S 3 10.00 Fair CLR 73.4 65.5 76% 30.11 0.0
23 08:55 Calm 10.00 Fair CLR 71.1 65.8 84% 30.11 0.0
23 08:47 Calm 10.00 Fair CLR 69.8 68 94% 30.1 0.0
23 08:35 Calm 4.00 Fog/Mist SCT001 68 66.2 94% 30.1 0.0
23 08:15 Calm 0.25 Fog OVC001 65.8 64 94% 30.1 0.0
23 07:47 S 3 0.15 Fog OVC001 64.4 62.6 94% 30.09 0.0
23 07:35 Calm 0.50 Fog OVC003 65.5 63.5 93% 30.09 0.0
23 07:15 Calm 2.50 Fog/Mist CLR 65.3 63 92% 30.09 0.0
23 06:55 S 3 3.00 Fog/Mist CLR 64.6 61.5 90% 30.08 0.0
23 06:47 Calm 2.00 Fog/Mist SCT003 66.2 62.6 88% 30.09 0.0
23 06:35 Calm 5.00 Fog/Mist CLR 65.5 62.6 90% 30.08 0.0
23 06:15 Calm 5.00 Fog/Mist CLR 65.3 62.2 90% 30.08 0.0
23 05:55 Calm 7.00 Fair CLR 64.8 61.9 90% 30.07 0.0
23 05:35 Calm 10.00 Fair CLR 65.3 62.1 89% 30.06 0.0
23 05:15 Calm 3.00 Fog/Mist CLR 64.8 61.7 90% 30.06 0.0
23 04:55 Calm 10.00 Fair CLR 65.5 62.6 90% 30.06 0.0
23 04:35 Calm 10.00 Fair CLR 65.5 63 92% 30.06 0.0
23 04:15 Calm 3.00 Fog/Mist SCT065 64.2 60.8 89% 30.06 0.0
23 03:55 Calm 10.00 Partly Cloudy SCT065 65.3 61.3 87% 30.06 0.0
23 03:35 Calm 10.00 Fair CLR 66.2 61.9 86% 30.06 0.0
23 03:15 Calm 10.00 Fair CLR 65.5 61.5 87% 30.06 0.0
23 02:55 Calm 10.00 Fair CLR 66.4 61.7 85% 30.05 0.0
23 02:35 Calm 10.00 Partly Cloudy SCT095 66.9 61.2 82% 30.05 0.0
23 02:15 Calm 10.00 Mostly Cloudy BKN095 66.7 61.2 82% 30.05 0.0
23 01:55 Calm 10.00 Mostly Cloudy BKN095 65.5 61.7 88% 30.05 0.0
23 01:35 Calm 10.00 Partly Cloudy SCT095 66.4 61.7 85% 30.05 0.0
23 01:15 Calm 10.00 Fair CLR 66.7 62.1 85% 30.05 0.0
23 00:55 Calm 10.00 Fair CLR 68 61.3 79% 30.04 0.0
23 00:35 Calm 10.00 Fair CLR 68.9 61.7 78% 30.04 0.0
23 00:15 Calm 10.00 Partly Cloudy SCT110 68.9 61.7 78% 30.04 0.0
22 23:55 Calm 10.00 Mostly Cloudy BKN110 68.9 63 81% 30.03 0.0
22 23:35 W 3 10.00 Overcast OVC110 69.3 63.3 81% 30.03 0.0
22 23:15 Calm 10.00 Overcast OVC110 69.6 63.7 82% 30.03 0.0
22 22:55 Calm 10.00 Overcast OVC110 69.4 65.3 87% 30.03 0.0
22 22:35 Calm 10.00 Overcast OVC095 69.6 64.8 85% 30.04 0.0
22 22:15 Calm 10.00 Overcast OVC095 70 65.3 85% 30.04 0.0
22 21:55 Calm 10.00 Overcast OVC095 70 65.3 85% 30.04 0.0
22 21:35 Calm 10.00 Mostly Cloudy BKN095 70.3 65.5 85% 30.04 0.0
22 21:15 Calm 10.00 Mostly Cloudy SCT095 BKN120 70.7 65.7 84% 30.03 0.0
22 20:55 Calm 10.00 Overcast SCT070 OVC110 71.1 65.5 83% 30.02 0.0
22 20:35 Calm 10.00 Overcast SCT065 BKN070 OVC110 71.6 65.3 81% 30.02 0.0
22 20:15 Calm 10.00 Overcast OVC050 71.8 65.1 80% 30.02 0.0
22 19:55 Calm 10.00 Overcast OVC050 72.1 64.6 77% 30 0.0
22 19:35 Calm 10.00 Overcast OVC050 72.5 64.9 77% 30 0.0
22 19:15 Calm 10.00 Overcast OVC050 72.5 63.9 74% 30.01 0.0
22 18:55 Calm 10.00 Mostly Cloudy BKN050 73 63.5 72% 30 0.0
22 18:47 Calm 10.00 Mostly Cloudy BKN050 73.4 62.6 69% 30.01 0.0
22 18:35 Calm 10.00 Partly Cloudy SCT050 73.4 63.7 72% 30 0.0
22 18:15 Calm 10.00 Mostly Cloudy BKN060 73.4 63.7 72% 30.01 0.0
22 17:55 Calm 10.00 Overcast OVC060 73.4 64.4 74% 30.01 0.0
22 17:47 Calm 10.00 Overcast OVC060 73.4 64.4 74% 30.01 0.0
22 17:35 Calm 10.00 Overcast OVC050 72.9 63.3 72% 30.02 0.0
22 17:15 Calm 10.00 Mostly Cloudy BKN050 BKN120 73.8 59.5 61% 30.02 0.0
22 16:55 Calm 10.00 Light Rain SCT120 73.9 58.3 58% 30.01 0.0
22 16:47 Calm 10.00 Mostly Cloudy SCT055 BKN120 73.4 62.6 69% 30.01 0.0
22 16:35 Calm 10.00 Light Rain SCT030 SCT042 BKN110 72.5 62.8 72% 30.02 0.0
22 16:15 Calm 10.00 Light Rain SCT030 SCT048 BKN060 72 63 73% 30.02 0.0
22 15:47 Calm 10.00 Light Rain SCT027 BKN033 OVC120 71.6 62.6 73% 30.03 0.0
22 15:35 Calm 10.00 Light Rain SCT029 BKN041 OVC048 71.6 62.4 73% 30.03 0.0
22 15:15 Calm 10.00 Light Rain SCT033 BKN048 OVC065 70.9 63.1 77% 30.04 0.0
22 14:55 Calm 10.00 Light Rain SCT039 SCT050 OVC065 70.5 64.4 81% 30.04 0.0
22 14:47 Calm 10.00 Light Rain SCT039 SCT050 OVC065 69.8 64.4 83% 30.04 0.0
22 14:35 Calm 10.00 Light Rain SCT039 BKN050 OVC065 70.5 64.4 81% 30.04 0.0
22 14:15 Calm 7.00 Rain SCT050 OVC075 70.7 64.9 82% 30.04 0.0
22 13:55 Calm 10.00 Light Rain SCT048 BKN065 OVC075 70.5 64.2 81% 30.05 0.0
22 13:47 Calm 7.00 Light Rain SCT042 SCT050 OVC065 71.6 64.4 78% 30.06 0.0
22 13:35 Calm 10.00 Light Rain SCT041 SCT050 OVC075 70.9 64.2 80% 30.06 0.0
22 13:15 S 3 7.00 Rain SCT048 OVC060 71.6 64.4 78% 30.06 0.0
22 12:55 S 3 10.00 Light Rain SCT049 BKN060 OVC070 72.9 63.1 72% 30.06 0.0
22 12:47 S 3 10.00 Light Rain SCT042 BKN060 OVC070 73.4 62.6 69% 30.06 0.0
22 12:35 S 3 10.00 Rain SCT044 BKN050 OVC070 75 62.6 65% 77 30.06 0.0
22 12:15 SW 3 10.00 Light Rain SCT050 BKN060 BKN085 75.9 60.6 59% 78 30.06 0.0
22 11:55 Calm 10.00 Fair CLR 76.6 60.6 58% 78 30.05 0.0
22 11:47 SW 3 10.00 Fair CLR 77 60.8 57% 79 30.05 0.0
22 11:35 SW 5 10.00 Partly Cloudy SCT085 77.4 62.4 60% 79 30.05 0.0
22 11:15 Calm 10.00 Partly Cloudy SCT085 77.9 60.3 55% 79 30.04 0.0
22 10:55 Calm 10.00 Fair CLR 76.3 59.9 57% 78 30.04 0.0
22 10:47 Calm 10.00 Fair CLR 75.2 59 57% 78 30.04 0.0
22 10:35 Calm 10.00 Fair CLR 76.5 59.7 56% 78 30.03 0.0
22 10:15 Calm 10.00 Partly Cloudy SCT100 75.6 60.1 59% 78 30.04 0.0
22 09:55 Calm 10.00 Partly Cloudy SCT110 75.2 58.6 57% 78 30.04 0.0
22 09:47 Calm 10.00 Mostly Cloudy BKN011 75.2 59 57% 78 30.05 0.0
22 09:35 Calm 10.00 Partly Cloudy SCT110 74.3 58.5 58% 30.05 0.0
22 09:15 Calm 10.00 Fair CLR 74.5 58.8 58% 30.04 0.0
22 08:47 Calm 10.00 Fair CLR 71.6 59 65% 30.05 0.0
22 08:35 Calm 10.00 Fair CLR 71.1 58.6 65% 30.04 0.0
22 08:15 Calm 10.00 Fair CLR 70.3 58.5 66% 30.04 0.0
22 07:55 Calm 10.00 Fair CLR 68.9 59.4 72% 30.03 0.0
22 07:35 Calm 10.00 Fair CLR 69.3 59.2 70% 30.03 0.0
22 07:15 Calm 10.00 Fair CLR 68.2 59 73% 30.04 0.0
22 06:55 Calm 10.00 Fair CLR 67.1 59 75% 30.04 0.0
22 06:47 Calm 10.00 Fair CLR 66.2 59 78% 30.04 0.0
22 06:35 Calm 10.00 Fair CLR 66.2 59.2 78% 30.04 0.0
22 06:15 Calm 10.00 Fair CLR 66.9 59 76% 30.04 0.0
22 05:55 Calm 10.00 Fair CLR 67.5 59.2 75% 30.04 0.0
22 05:35 Calm 10.00 Fair CLR 67.5 59 74% 30.04 0.0
22 05:15 Calm 10.00 Fair CLR 68 59.2 74% 30.04 0.0
22 04:55 Calm 10.00 Fair CLR 68.4 59.4 73% 30.05 0.0
22 04:35 Calm 10.00 Fair CLR 68.2 59.4 74% 30.05 0.0
22 04:15 Calm 10.00 Fair CLR 68.9 59 71% 30.05 0.0
22 03:55 Calm 10.00 Fair CLR 69.4 59.2 70% 30.06 0.0
22 03:35 Calm 10.00 Fair CLR 69.4 58.6 69% 30.06 0.0
22 03:15 Calm 10.00 Fair CLR 69.3 58.6 69% 30.07 0.0
22 02:55 Calm 10.00 Fair CLR 69.8 58.1 67% 30.08 0.0
22 02:35 Calm 10.00 Fair CLR 70.2 58.1 66% 30.08 0.0
22 02:15 Calm 10.00 Fair CLR 70.9 58.1 64% 30.09 0.0
22 01:55 Calm 10.00 Fair CLR 70.7 58.1 65% 30.09 0.0
22 01:35 Calm 10.00 Fair CLR 71.2 57.2 61% 30.09 0.0
22 01:15 Calm 10.00 Fair CLR 72.1 56.7 58% 30.1 0.0
22 00:55 Calm 10.00 Fair CLR 72 57 59% 30.11 0.0
22 00:35 Calm 10.00 Fair CLR 72.7 57.2 58% 30.1 0.0
22 00:15 Calm 10.00 Fair CLR 72.5 57.2 59% 30.1 0.0
21 23:55 Calm 10.00 Fair CLR 72.7 56.7 57% 30.1 0.0
21 23:35 Calm 10.00 Fair CLR 73.4 56.1 55% 30.1 0.0
21 23:15 Calm 10.00 Fair CLR 73 56.1 56% 30.1 0.0
21 22:55 Calm 10.00 Fair CLR 72.7 55.6 55% 30.11 0.0
21 22:35 Calm 10.00 Fair CLR 72.5 55.9 56% 30.11 0.0
21 22:15 Calm 10.00 Fair CLR 73 55.4 54% 30.1 0.0
21 21:55 Calm 10.00 Fair CLR 73.4 55.8 54% 30.1 0.0
21 21:35 Calm 10.00 Fair CLR 72.9 55.6 55% 30.1 0.0
21 21:15 Calm 10.00 Fair CLR 73.9 55.4 52% 30.09 0.0
21 20:55 Calm 10.00 Fair CLR 75.2 55.4 50% 78 30.08 0.0
21 20:35 Calm 10.00 Fair CLR 75.4 54.9 49% 78 30.08 0.0
21 20:15 Calm 10.00 Fair CLR 76.6 55 47% 78 30.08 0.0
21 19:55 Calm 10.00 Fair CLR 77 54.7 46% 78 30.08 0.0
21 19:35 Calm 10.00 Fair CLR 77.7 52.7 42% 79 30.08 0.0
21 19:15 Calm 10.00 Fair CLR 79.5 50.9 37% 79 30.08 0.0
21 18:55 NE 5 10.00 Fair CLR 81.3 50.7 35% 80 30.08 0.0
21 18:35 NE 3 10.00 Fair CLR 82.4 43.3 25% 80 30.08 0.0
21 18:15 NE 3 10.00 Fair CLR 82.9 43.3 25% 81 30.08 0.0
21 17:55 NE 5 10.00 Fair CLR 83.8 43.2 24% 81 30.09 0.0
21 17:35 NE 3 10.00 Fair CLR 83.7 46.8 28% 82 30.1 0.0
21 17:15 NE 3 10.00 Fair CLR 82.8 47.1 29% 81 30.1 0.0
21 16:55 Calm 10.00 Fair CLR 82 48.4 31% 81 30.11 0.0
21 16:35 NE 6 10.00 Fair CLR 83.3 48.9 30% 81 30.11 0.0
21 16:15 Calm 10.00 Fair CLR 82 49.5 32% 81 30.12 0.0
21 15:55 N 3 10.00 Fair CLR 82.2 50.4 33% 81 30.12 0.0
21 15:35 N 3 10.00 Fair CLR 83.1 50.4 32% 82 30.12 0.0
21 15:15 NE 5 10.00 Fair CLR 82.2 50.9 34% 81 30.12 0.0
21 14:55 NE 5 10.00 Fair CLR 81.7 51.1 35% 81 30.12 0.0
21 14:35 N 5 10.00 Fair CLR 81.7 51.1 35% 81 30.12 0.0
21 14:15 N 3 10.00 Fair CLR 81.1 52.9 38% 81 30.12 0.0
21 13:55 E 3 10.00 Fair CLR 82.8 53.1 36% 82 30.13 0.0
21 13:35 Calm 10.00 Fair CLR 82.4 53.4 37% 81 30.13 0.0
21 13:15 NW 5 10.00 Fair CLR 81.9 53.6 38% 81 30.13 0.0
21 12:55 Calm 10.00 Fair CLR 80.4 53.8 40% 80 30.13 0.0
21 12:35 Calm 10.00 Fair CLR 80.4 53.2 39% 80 30.14 0.0
21 12:15 Calm 10.00 Fair CLR 79.9 51.3 37% 80 30.14 0.0
Date Time (edt) Wind (mph) Vis. (mi.) Weather Sky Cond. Air Dwpt Max. Min. Relative Humidity Wind Chill (°F) Heat Index (°F) altimeter (in) sea level (mb) 1 hr 3 hr 6 hr
6 hour
Temperature (ºF) Pressure Precipitation (in)